sat.trackr.live / text

‹ back to catalog

STARLINK-4067

NORAD 52668 · 2022-053N

PAYLOAD ACTIVE UNKNOWN

§ Identity

Operator
Country
US
Launch date
2022-05-18
Launch site
AFETR
Launch vehicle
Mass (kg)
RCS (m²)

Purposes: comms

External: N2YO · Heavens-Above · Gunter

§ Orbital elements

Epoch: 2026-09-19T21:46:46.278912Z

Period
94.01 min
Inclination
53.1618°
Eccentricity
0.0001436
Mean motion
15.31704636 rev/d
Perigee alt
469.7 km
Apogee alt
471.7 km
Semi-major
6,848.9 km
B*
-3.1424e-5
RAAN
348.5479°
Arg perigee
113.5324°
Mean anomaly
246.5828°
Rev number
24,055

§ Raw data

STARLINK-40671 52668U 22053N   26262.90748008 -.00001340  00000+0 -31424-4 0  99902 52668  53.1618 348.5479 0001436 113.5324 246.5828 15.31704636240553

JSON: /api/v1/satellites/52668 · /tle

For live sub-satellite position, see the globe view (requires WebGL).

§ Visibility from observer

Set your observer location to see the next 7 days of passes ≥ 10°. The values pass through the URL so the page stays shareable.

No JS? Fill the form by hand. The geolocation button needs JavaScript.